Location: ???????
(55.3754°N, 39.3545°E)
Time: 19:47:36
(UTC+00:00)

Cosmos 2327 Rocket - Pass Details

Date: 14 April 2026
Orbit: 944 x 1006 km, 83.0° (Epoch: 19 May)

Event Time Altitude Azimuth Distance (km) Brightness Sun altitude
Rises 17:28:23 0° 183° (S) 3,633 7.2 -8.9°
Reaches altitude 10° 17:30:51 10° 182° (S) 2,699 6.5 -9.2°
Maximum altitude 17:37:01 78° 98° (E) 1,003 4.5 -9.9°
Drops below altitude 10° 17:43:21 10° 13° (NNE) 2,762 7.2 -10.7°
Sets 17:45:54 0° 12° (NNE) 3,723 7.9 -11.0°
